Weather in Thulusdhoo

Maldives     4°22′29″N   73°39′06″E
temp.,
°C
wind,
m/s
gust,
m/s
humid.,
%
clouds,
%
prec.,
mm/h
press.,
hPa
HPBL,
m
8 march, mon
mon823:00+28ne457033 0.1 10121033
02:00+28ne346854 0.0 10101064
05:00+29ene346768 0.0 10101103
08:00+29ne4467100 0.0 10121149
11:00+29nne446987 0.0 1012921
14:00+29nne556910 0.0 1009995
17:00+29ne456827 0.0 10091128
20:00+29ne447251 0.0 1011729
9 march, tue
tue923:00+28nne557746 0.4 1012571
02:00+28nne347588 1.3 1009550
05:00+28ne337078 4.3 1009505
08:00+29ne5572100 0.0 1012864
11:00+29ne687484 2.4 1012860
14:00+28ne7875100 8.8 1009683
17:00+29ene7876100 13.1 1009817
20:00+29ne8977100 1.6 1011989
10 march, wed
wed1023:00+29ne7878100 2.3 1012810
02:00+28ese5676100 4.3 1009509
05:00+28ese6675100 8.8 1009425
08:00+27se4581100 9.8 1012410
11:00+26wnw3383100 16.3 1012137
14:00+25se4591100 9.3 1010302
17:00+25e3589100 28.8 1010401
20:00+25wsw4388100 2.9 1012225
11 march, thu
thu1123:00+26wnw4377100 3.1 1012229
02:00+27w217294 0.0 1009280
05:00+27se116950 0.0 1009294
08:00+27sw116774 0.0 1012449
11:00+28w446784 0.0 1013740
14:00+28w667590 0.0 1010819
17:00+28w567386 3.9 1010545
20:00+28wsw446531 0.4 1013617
12 march, fri
fri1223:00+28s336653 0.4 1013773
02:00+27ese3369100 0.8 1010374
05:00+28ese6672100 0.9 1010439
08:00+28ene91070100 0.0 1012524
11:00+28ene101172100 0.0 1012708
14:00+28ne11127899 0.0 10091046
17:00+27ene9108099 0.1 1010953
20:00+27ene101182100 0.1 1012745